Total_Precipitation_Accumulation
0.04 0.05 0.05 0.06 0.08 0.13 0.16 0.12 0.07 0.05 0.06 0.05 0.03 0.01 0.01 0.00 0.00 0.00 0.00 0.00 0.00 0.00 0.00 0.00 0.00 0.00 0.00 0.00 0.00 0.00 0.00 0.00 0.00 0.00 0.00 0.00 0.00 0.00
0.03 0.04 0.04 0.06 0.07 0.09 0.12 0.12 0.09 0.06 0.06 0.05 0.08 0.06 0.05 0.04 0.03 0.01 0.00 0.00 0.00 0.00 0.00 0.00 0.00 0.00 0.00 0.00 0.00 0.00 0.00 0.00 0.00 0.00 0.00 0.00 0.00 0.00
0.00 0.01 0.01 0.02 0.05 0.07 0.09 0.11 0.10 0.08 0.05 0.04 0.05 0.06 0.04 0.05 0.05 0.04 0.03 0.01 0.00 0.00 0.00 0.00 0.00 0.00 0.00 0.00 0.00 0.00 0.00 0.00 0.00 0.00 0.00 0.00 0.00 0.00
0.00 0.00 0.00 0.00 0.01 0.02 0.04 0.07 0.11 0.10 0.07 0.04 0.03 0.04 0.05 0.04 0.04 0.05 0.07 0.07 0.03 0.03 0.02 0.00 0.00 0.00 0.00 0.00 0.00 0.00 0.00 0.00 0.00 0.00 0.00 0.00 0.00 0.00
0.00 0.00 0.00 0.00 0.01 0.01 0.03 0.05 0.08 0.09 0.09 0.06 0.04 0.04 0.04 0.03 0.02 0.02 0.03 0.05 0.06 0.07 0.05 0.02 0.00 0.00 0.00 0.00 0.00 0.00 0.00 0.00 0.00 0.00 0.00 0.00 0.00 0.00
0.00 0.00 0.00 0.01 0.02 0.03 0.05 0.09 0.12 0.14 0.13 0.09 0.07 0.06 0.05 0.04 0.03 0.03 0.02 0.01 0.03 0.04 0.03 0.02 0.01 0.00 0.00 0.00 0.00 0.00 0.00 0.00 0.00 0.00 0.00 0.00 0.00 0.00
0.00 0.00 0.00 0.00 0.01 0.02 0.02 0.06 0.07 0.12 0.15 0.17 0.18 0.16 0.12 0.07 0.05 0.04 0.03 0.03 0.04 0.02 0.02 0.02 0.01 0.00 0.00 0.00 0.00 0.00 0.00 0.00 0.00 0.00 0.00 0.00 0.00 0.00
0.04 0.01 0.00 0.00 0.00 0.00 0.00 0.01 0.02 0.04 0.06 0.08 0.13 0.16 0.15 0.12 0.09 0.06 0.03 0.02 0.03 0.03 0.03 0.03 0.02 0.01 0.00 0.00 0.00 0.00 0.00 0.00 0.00 0.00 0.00 0.00 0.00 0.00
0.10 0.05 0.03 0.00 0.00 0.00 0.00 0.00 0.01 0.01 0.01 0.03 0.04 0.06 0.05 0.06 0.08 0.06 0.04 0.02 0.02 0.02 0.02 0.02 0.02 0.01 0.01 0.00 0.00 0.00 0.00 0.00 0.00 0.00 0.00 0.00 0.00 0.00
0.12 0.11 0.11 0.04 0.01 0.00 0.00 0.00 0.00 0.01 0.01 0.01 0.03 0.03 0.03 0.04 0.06 0.07 0.06 0.04 0.03 0.02 0.01 0.02 0.02 0.02 0.01 0.01 0.00 0.00 0.00 0.00 0.00 0.00 0.00 0.00 0.00 0.00
0.06 0.09 0.10 0.08 0.05 0.01 0.00 0.01 0.01 0.01 0.00 0.00 0.02 0.03 0.02 0.02 0.06 0.11 0.13 0.13 0.10 0.08 0.06 0.04 0.04 0.03 0.03 0.02 0.01 0.00 0.00 0.00 0.00 0.00 0.00 0.00 0.00 0.00
0.01 0.03 0.07 0.07 0.05 0.01 0.01 0.04 0.08 0.03 0.01 0.01 0.02 0.03 0.06 0.09 0.16 0.15 0.15 0.18 0.20 0.23 0.24 0.19 0.15 0.11 0.09 0.05 0.02 0.00 0.00 0.00 0.00 0.00 0.00 0.00 0.00 0.00
0.00 0.00 0.01 0.01 0.01 0.01 0.01 0.04 0.08 0.03 0.01 0.02 0.03 0.02 0.04 0.10 0.13 0.10 0.10 0.18 0.23 0.28 0.36 0.39 0.36 0.31 0.24 0.17 0.08 0.03 0.01 0.00 0.00 0.00 0.00 0.00 0.00 0.00
0.00 0.00 0.00 0.00 0.00 0.01 0.01 0.03 0.04 0.03 0.03 0.04 0.04 0.02 0.01 0.04 0.04 0.04 0.04 0.06 0.09 0.14 0.21 0.20 0.18 0.16 0.14 0.10 0.07 0.05 0.02 0.01 0.00 0.00 0.00 0.00 0.00 0.00
0.01 0.01 0.00 0.00 0.00 0.00 0.01 0.02 0.04 0.04 0.04 0.06 0.06 0.03 0.01 0.01 0.02 0.03 0.04 0.05 0.05 0.05 0.04 0.04 0.03 0.02 0.02 0.01 0.01 0.01 0.01 0.01 0.00 0.00 0.00 0.00 0.00 0.00
0.01 0.01 0.01 0.00 0.00 0.01 0.02 0.03 0.04 0.05 0.05 0.05 0.03 0.01 0.01 0.01 0.02 0.02 0.02 0.03 0.03 0.02 0.01 0.01 0.01 0.01 0.01 0.01 0.01 0.00 0.00 0.00 0.00 0.00 0.00 0.00 0.00 0.00
0.01 0.01 0.02 0.02 0.02 0.02 0.04 0.06 0.05 0.04 0.05 0.04 0.02 0.02 0.01 0.01 0.01 0.00 0.00 0.01 0.02 0.02 0.02 0.01 0.00 0.00 0.00 0.01 0.01 0.01 0.01 0.01 0.01 0.01 0.01 0.00 0.00 0.00
0.02 0.04 0.08 0.11 0.09 0.08 0.07 0.07 0.08 0.07 0.06 0.04 0.03 0.03 0.02 0.02 0.02 0.01 0.01 0.02 0.04 0.03 0.01 0.00 0.00 0.00 0.00 0.01 0.01 0.01 0.02 0.02 0.03 0.03 0.01 0.01 0.00 0.01
0.04 0.12 0.27 0.27 0.18 0.16 0.15 0.13 0.10 0.05 0.03 0.03 0.02 0.01 0.01 0.01 0.01 0.01 0.01 0.01 0.01 0.01 0.01 0.01 0.02 0.02 0.02 0.02 0.02 0.01 0.03 0.05 0.04 0.03 0.02 0.01 0.01 0.01
0.03 0.07 0.17 0.17 0.17 0.16 0.12 0.09 0.05 0.03 0.02 0.02 0.01 0.00 0.00 0.00 0.00 0.00 0.00 0.00 0.00 0.01 0.01 0.03 0.03 0.02 0.03 0.03 0.03 0.03 0.02 0.03 0.03 0.03 0.02 0.01 0.01 0.00
0.04 0.06 0.08 0.10 0.09 0.06 0.04 0.03 0.02 0.01 0.01 0.00 0.00 0.00 0.01 0.01 0.00 0.00 0.00 0.00 0.00 0.01 0.01 0.02 0.01 0.01 0.01 0.02 0.03 0.03 0.03 0.05 0.03 0.01 0.01 0.01 0.01 0.01
0.03 0.04 0.04 0.04 0.03 0.01 0.01 0.01 0.00 0.00 0.00 0.00 0.00 0.00 0.01 0.00 0.00 0.00 0.00 0.00 0.01 0.01 0.01 0.01 0.01 0.01 0.01 0.03 0.04 0.03 0.03 0.03 0.05 0.06 0.05 0.03 0.02 0.01
0.01 0.01 0.00 0.00 0.00 0.00 0.00 0.00 0.00 0.00 0.00 0.00 0.00 0.00 0.01 0.01 0.01 0.00 0.00 0.00 0.00 0.00 0.00 0.00 0.00 0.00 0.01 0.01 0.02 0.02 0.03 0.03 0.04 0.05 0.06 0.05 0.03 0.01